Weather History for Flagstaff, AZ

Change the Weather History Date:

Sunday, January 12, 2014

  Actual Average Record
Temperature  
Mean Temperature 35 °F 30 °F  
Max Temperature 48 °F 42 °F 59 °F (2002)
Min Temperature 22 °F 17 °F -20 °F (1963)
Degree Days  
Heating Degree Days 30 35  
Month to date heating degree days 365 426  
Since 1 July heating degree days 3278 3254  
Cooling Degree Days 0 0  
Month to date cooling degree days 0 0  
Year to date cooling degree days 0 0  
Moisture  
Dew Point 14 °F    
Average Humidity 45    
Maximum Humidity 75    
Minimum Humidity 15    
Precipitation  
Precipitation 0.00 in 0.07 in 1.00 in (2001)
Month to date precipitation 0.00 0.86  
Year to date precipitation 0.00 0.86  
Snow  
Snow 0.00 in 0.80 in 8.20 in (1960)
Month to date snowfall 0.0 8.6  
Since 1 July snowfall 29.9 37.7  
Snow Depth 0.00 in    
Sea Level Pressure  
Sea Level Pressure 30.06 in    
Wind  
Wind Speed 5 mph (West)    
Max Wind Speed 16 mph    
Max Gust Speed 26 mph    
Visibility 10 miles    
Events      
T = Trace of Precipitation, MM = Missing Value Source: NWS Daily Summary

Daily Weather History Graph

Daily Weather History Graph

Search for Another Location

Airport:

Trip Planner

Search our weather history database for the weather conditions in past years. The results will help you decide how hot, cold, wet, or windy it might be!

Date:

Astronomy

Jan. 12, 2014 Rise Set
Actual Time 7:35 AM MST 5:35 PM MST
Civil Twilight 7:07 AM MST 6:02 PM MST
Nautical Twilight 6:36 AM MST 6:34 PM MST
Astronomical Twilight 6:05 AM MST 7:04 PM MST
Moon 3:05 PM MST (1/12) 4:38 AM MST (1/12)
Length of Visible Light 10h 55m
Length of Day
10h 00m
Waxing Gibbous, 90% of the Moon is Illuminated
Jan 12
Waxing Gibbous
Jan 15
Full
Jan 23
Last Quarter
Jan 30
New
Feb 6
First Quarter

Hourly Weather History & Observations

Time (MST) Temp. Windchill Dew Point Humidity Pressure Visibility Wind Dir Wind Speed Gust Speed Precip Events Conditions
12:57 AM 30.0 °F - 21.9 °F 72% 29.95 in 10.0 mi Calm Calm - N/A   Clear
1:57 AM 28.9 °F - 21.9 °F 75% 29.95 in 10.0 mi Calm Calm - N/A   Clear
2:57 AM 35.1 °F 26.4 °F 21.9 °F 59% 29.92 in 10.0 mi SW 12.7 mph - N/A   Clear
3:57 AM 35.1 °F - 21.9 °F 59% 29.92 in 10.0 mi Calm Calm - N/A   Scattered Clouds
4:57 AM 30.9 °F - 21.9 °F 69% 29.96 in 10.0 mi Calm Calm - N/A   Clear
5:57 AM 30.9 °F 27.5 °F 21.9 °F 69% 30.00 in 10.0 mi SW 3.5 mph - N/A   Clear
6:57 AM 28.0 °F - 21.0 °F 75% 30.01 in 10.0 mi Calm Calm - N/A   Clear
7:57 AM 26.1 °F 21.9 °F 19.9 °F 78% 30.05 in 10.0 mi SW 3.5 mph - N/A   Clear
8:57 AM 35.1 °F 29.3 °F 23.0 °F 61% 30.04 in 10.0 mi SW 6.9 mph - N/A   Clear
9:57 AM 42.1 °F 35.7 °F 21.0 °F 43% 30.05 in 10.0 mi West 11.5 mph 21.9 mph N/A   Clear
10:57 AM 44.1 °F 38.1 °F 18.0 °F 35% 30.06 in 10.0 mi West 11.5 mph 18.4 mph N/A   Clear
11:57 AM 46.0 °F 40.2 °F 14.0 °F 28% 29.99 in 10.0 mi West 12.7 mph 18.4 mph N/A   Clear
12:57 PM 48.0 °F - 3.9 °F 16% 30.00 in 10.0 mi WNW 12.7 mph 21.9 mph N/A   Clear
1:57 PM 48.0 °F - 7.0 °F 19% 30.00 in 10.0 mi WNW 9.2 mph 20.7 mph N/A   Clear
2:57 PM 48.0 °F - 6.1 °F 18% 29.99 in 10.0 mi West 10.4 mph 19.6 mph N/A   Clear
3:57 PM 44.1 °F 39.5 °F 5.0 °F 20% 30.03 in 10.0 mi West 8.1 mph - N/A   Clear
4:57 PM 41.0 °F 35.8 °F 7.0 °F 25% 30.09 in 10.0 mi WNW 8.1 mph - N/A   Clear
5:57 PM 37.9 °F 34.4 °F 6.1 °F 27% 30.12 in 10.0 mi NNW 4.6 mph - N/A   Clear
6:57 PM 35.1 °F 32.2 °F 5.0 °F 28% 30.19 in 10.0 mi Variable 3.5 mph - N/A   Clear
7:57 PM 34.0 °F 29.8 °F 6.1 °F 31% 30.23 in 10.0 mi Variable 4.6 mph - N/A   Clear
8:57 PM 32.0 °F 26.4 °F 8.1 °F 37% 30.22 in 10.0 mi Variable 5.8 mph - N/A   Clear
9:57 PM 30.9 °F - 9.0 °F 40% 30.22 in 10.0 mi Calm Calm - N/A   Clear
10:57 PM 24.1 °F - 10.9 °F 57% 30.27 in 10.0 mi Calm Calm - N/A   Clear
11:57 PM 21.9 °F - 10.9 °F 63% 30.26 in 10.0 mi Calm Calm - N/A   Clear